{"data":{"norad_id":61575,"epoch":"2026-09-21T16:22:22.171584Z","epoch_age_seconds":89942,"freshness":"FRESH","line1":"1 61575U 24187B   26264.68220106  .00001051  00000+0  13529-4 0  9991","line2":"2 61575  53.1597  50.0497 0000869  83.4663 276.6454 15.69706250111484","mean_motion":15.6970625,"eccentricity":8.69e-5,"inclination_deg":53.1597,"raan_deg":50.0497,"arg_perigee_deg":83.4663,"mean_anomaly_deg":276.6454,"bstar":1.3529e-5,"rev_number":11148,"period_min":91.736909373967,"perigee_km":359.15196021328,"apogee_km":360.32300279816,"semimajor_km":6737.8744815057,"source":"CELESTRAK","updated_at":"2026-09-22T09:00:49.390137Z"}}